This demonstration page uses our WeatherBlox Daily Observations layout. Learn more.

Left ArrowRight Arrow

Hourly Observations for January 3, 2015

Temp ( °F °C ) Dew Point ( °F °C ) Humidity (%) Winds ( mph kmh ) Pressure ( in mb ) Visibility ( mi km ) Precip ( " mm )
12:30 am 00:30 Cloudy 27 -3 23 -5 86 86 S 6 9 30.03 1017 10 16 0.00 0.00
12:52 am 00:52 Mostly Cloudy 26 -3.3 23 -5 88 88 SE 6 9 30.01 1016 10 16 0.00 0.00
1:15 am 01:15 Mostly Cloudy 26 -3.3 22 -5.6 84 84 SSE 10 17 30.03 1017 10 16 0.00 0.00
1:52 am 01:52 Cloudy 24 -4.4 21 -6.1 88 88 SSE 8 13 29.98 1015 9 14 0.00 0.00
2:52 am 02:52 Cloudy 24 -4.4 22 -5.6 91 91 SE 7 11 29.96 1014 9 14 0.00 0.00
3:52 am 03:52 Cloudy 23 -5 21 -6.1 92 92 SE 7 11 29.93 1013 8 13 0.00 0.00
4:52 am 04:52 Cloudy 24 -4.4 22 -5.6 91 91 S 7 11 29.91 1013 8 13 0.00 0.00
5:52 am 05:52 Cloudy 23 -5 22 -5.6 96 96 S 3 6 29.90 1012 7 11 0.00 0.00
6:52 am 06:52 Cloudy 23 -5 21 -6.1 92 92 ESE 6 9 29.87 1012 7 11 0.00 0.00
7:52 am 07:52 Cloudy 21 -6.1 19 -7.2 92 92 SSE 6 9 29.89 1012 7 11 0.00 0.00
8:52 am 08:52 Mostly Cloudy 24 -4.4 22 -5.6 91 91 S 6 9 29.92 1013 7 11 0.00 0.00
9:52 am 09:52 Mostly Cloudy 28 -2.2 24 -4.4 85 85 SSE 7 11 29.91 1013 7 11 0.00 0.00
10:52 am 10:52 Mostly Cloudy 30 -1.1 24 -4.4 79 79 SSE 3 6 29.89 1012 9 14 0.00 0.00
11:52 am 11:52 Cloudy 32 0 24 -4.4 73 73 Calm 29.87 1012 10 16 0.00 0.00
12:52 pm 12:52 Cloudy 33 0.6 24 -4.4 70 70 Calm 29.85 1011 10 16 0.00 0.00
1:52 pm 13:52 Mostly Cloudy 35 1.7 23 -5 61 61 S 5 7 29.85 1011 10 16 0.00 0.00
2:52 pm 14:52 Mostly Cloudy 37 2.8 24 -4.4 59 59 NW 16 26 29.85 1011 10 16 0.00 0.00
3:52 pm 15:52 Mostly Cloudy 33 0.6 23 -5 66 66 NNW 12 19 29.90 1013 10 16 0.00 0.00
4:44 pm 16:44 Cloudy 30 -1 21 -6 69 69 NNW 20 31 29.94 1014 10 16 0.00 0.00
4:52 pm 16:52 Cloudy 30 -1.1 22 -5.6 72 72 NNW 18 30 29.93 1013 10 16 0.00 0.00
5:52 pm 17:52 Cloudy 23 -5 17 -8.3 78 78 NNW 20 31 29.96 1015 10 16 0.00 0.00
6:08 pm 18:08 Cloudy 21 -6 18 -8 86 86 NNW 23 37 30.03 1017 9 14 0.00 0.00
6:52 pm 18:52 Cloudy 20 -6.7 14 -10 78 78 NNW 22 35 30.04 1017 10 16 0.00 0.00
7:22 pm 19:22 Cloudy 18 -8 10 -12 73 73 NNW 25 41 30.12 1020 10 16 0.00 0.00
7:52 pm 19:52 Windy with Snow Likely 16 -8.9 9 -12.8 74 74 NNW 23 37 30.10 1019 9 14 0.00 0.03
8:52 pm 20:52 Windy with Snow Likely 15 -9.4 9 -12.8 77 77 NNW 30 48 30.10 1019 3 5 0.00 0.03
9:20 pm 21:20 Windy with Snow Likely 12 -11 9 -13 85 85 N 22 35 30.18 1022 3 5 0.00 0.00
9:22 pm 21:22 Windy with Snow Likely 12 -11 9 -13 85 85 N 21 33 30.18 1022 2 3 0.00 0.00
9:52 pm 21:52 Windy with Snow Likely 13 -10.6 8 -13.3 81 81 N 31 50 30.13 1020 2 2 0.00 0.03
10:52 pm 22:52 Mostly Cloudy with Light Snow 11 -11.7 6 -14.4 81 81 N 24 39 30.16 1021 1 2 0.00 0.03
11:52 pm 23:52 Mostly Cloudy with Light Snow 11 -11.7 7 -13.9 84 84 NNW 23 37 30.21 1023 1 2 0.00 0.03

Powered by AerisWeather